TimeEST,TemperatureF,Dew PointF,Humidity,Sea Level PressureIn,VisibilityMPH,Wind Direction,Wind SpeedMPH,Gust SpeedMPH,PrecipitationIn,Events,Conditions,WindDirDegrees,DateUTC
12:57 AM,48.0,39.0,71,30.44,10.0,NE,8.1,-,N/A,,Scattered Clouds,40,2013-01-11 05:57:00
1:57 AM,48.0,41.0,77,30.43,10.0,NE,8.1,-,N/A,,Partly Cloudy,50,2013-01-11 06:57:00
2:57 AM,48.9,42.1,77,30.40,10.0,ENE,8.1,-,N/A,,Overcast,60,2013-01-11 07:57:00
3:57 AM,50.0,43.0,77,30.38,10.0,NE,6.9,-,N/A,,Overcast,50,2013-01-11 08:57:00
4:57 AM,48.9,44.1,83,30.37,10.0,NE,6.9,-,N/A,,Clear,50,2013-01-11 09:57:00
5:57 AM,50.0,45.0,83,30.36,10.0,ENE,5.8,-,N/A,,Clear,60,2013-01-11 10:57:00
6:57 AM,51.1,46.9,86,30.36,10.0,NE,6.9,-,N/A,,Scattered Clouds,50,2013-01-11 11:57:00
7:57 AM,54.0,50.0,86,30.36,10.0,ENE,8.1,-,N/A,,Mostly Cloudy,70,2013-01-11 12:57:00
8:57 AM,57.0,51.1,81,30.38,10.0,East,8.1,-,N/A,,Mostly Cloudy,80,2013-01-11 13:57:00
11:57 AM,66.0,57.0,73,30.30,10.0,SE,11.5,-,N/A,,Mostly Cloudy,140,2013-01-11 16:57:00
12:27 PM,66.2,57.2,73,30.27,10.0,SSE,9.2,-,N/A,,Overcast,150,2013-01-11 17:27:00
12:57 PM,66.9,59.0,76,30.27,10.0,SE,10.4,-,N/A,,Mostly Cloudy,140,2013-01-11 17:57:00
1:57 PM,64.9,57.9,78,30.24,10.0,SE,11.5,-,N/A,,Mostly Cloudy,140,2013-01-11 18:57:00
2:57 PM,64.0,59.0,84,30.23,6.0,South,8.1,-,0.00,Rain,Light Rain,170,2013-01-11 19:57:00
3:24 PM,62.6,59.0,88,30.23,1.8,SW,8.1,19.6,0.06,Rain,Rain,220,2013-01-11 20:24:00
3:29 PM,60.8,59.0,94,30.23,0.8,SSW,8.1,-,0.11,Rain,Heavy Rain,210,2013-01-11 20:29:00
3:41 PM,60.8,60.8,100,30.23,1.0,SSW,4.6,-,0.22,Rain,Heavy Rain,210,2013-01-11 20:41:00
3:57 PM,62.1,61.0,96,30.23,2.0,Calm,Calm,-,0.28,Rain,Rain,0,2013-01-11 20:57:00
4:08 PM,62.6,60.8,94,30.22,8.0,WSW,3.5,-,0.00,,Overcast,240,2013-01-11 21:08:00
4:40 PM,62.6,62.6,100,30.21,7.0,Calm,Calm,-,0.00,,Scattered Clouds,0,2013-01-11 21:40:00
4:57 PM,63.0,63.0,100,30.22,7.0,Calm,Calm,-,0.00,,Clear,0,2013-01-11 21:57:00
5:17 PM,62.6,60.8,94,30.21,2.5,Calm,Calm,-,N/A,,Mostly Cloudy,0,2013-01-11 22:17:00
5:19 PM,62.6,60.8,94,30.21,1.8,Calm,Calm,-,N/A,,Mostly Cloudy,0,2013-01-11 22:19:00
5:30 PM,62.6,60.8,94,30.21,0.5,Calm,Calm,-,N/A,Fog,Fog,0,2013-01-11 22:30:00
5:57 PM,59.0,57.9,96,30.22,0.5,Calm,Calm,-,N/A,Fog,Fog,0,2013-01-11 22:57:00
6:03 PM,59.0,57.2,94,30.21,0.2,Calm,Calm,-,N/A,Fog,Fog,0,2013-01-11 23:03:00
6:17 PM,57.2,57.2,100,30.21,0.5,Calm,Calm,-,N/A,Fog,Fog,0,2013-01-11 23:17:00
6:28 PM,59.0,57.2,94,30.21,0.5,Calm,Calm,-,N/A,Fog,Fog,0,2013-01-11 23:28:00
6:41 PM,60.8,60.8,100,30.21,2.0,SSW,4.6,-,N/A,,Overcast,210,2013-01-11 23:41:00
6:57 PM,61.0,60.1,97,30.22,4.0,SW,5.8,-,N/A,,Overcast,220,2013-01-11 23:57:00
7:33 PM,60.8,59.0,94,30.20,1.8,SW,5.8,-,N/A,,Overcast,230,2013-01-12 00:33:00
7:48 PM,60.8,60.8,100,30.20,0.5,SW,4.6,-,N/A,Fog,Fog,230,2013-01-12 00:48:00
7:57 PM,60.1,59.0,96,30.22,0.2,WSW,6.9,-,N/A,Fog,Fog,240,2013-01-12 00:57:00
8:19 PM,59.0,57.2,94,30.20,0.5,WSW,4.6,-,N/A,Fog,Fog,240,2013-01-12 01:19:00
8:26 PM,57.2,57.2,100,30.20,0.2,SW,4.6,-,N/A,Fog,Fog,230,2013-01-12 01:26:00
8:46 PM,57.2,57.2,100,30.20,0.5,WSW,4.6,-,N/A,Fog,Fog,240,2013-01-12 01:46:00
8:57 PM,57.9,57.0,97,30.21,0.5,SW,4.6,-,N/A,Fog,Fog,230,2013-01-12 01:57:00
9:23 PM,57.2,57.2,100,30.18,0.5,SW,4.6,-,N/A,Fog,Fog,230,2013-01-12 02:23:00
9:57 PM,57.0,57.0,100,30.20,0.5,Calm,Calm,-,N/A,Fog,Fog,0,2013-01-12 02:57:00
10:12 PM,57.2,57.2,100,30.19,0.2,Calm,Calm,-,N/A,Fog,Fog,0,2013-01-12 03:12:00
10:35 PM,57.2,55.4,94,30.18,0.5,WSW,4.6,-,N/A,Fog,Fog,240,2013-01-12 03:35:00
10:55 PM,55.4,55.4,100,30.18,1.0,WSW,5.8,-,N/A,,Mist,240,2013-01-12 03:55:00
10:57 PM,55.9,55.9,100,30.19,1.0,WSW,5.8,-,N/A,,Mist,240,2013-01-12 03:57:00
11:04 PM,57.2,55.4,94,30.18,0.8,WSW,5.8,-,N/A,,Mist,240,2013-01-12 04:04:00
11:13 PM,57.2,55.4,94,30.18,1.2,SW,5.8,-,N/A,,Overcast,230,2013-01-12 04:13:00